Location: Allos
(44.2333°N, 6.6333°E)
Time: 09:37:44
(UTC+00:00)

Cosmos 1151 Rocket - Pass Details

Date: 01 December 2020
Orbit: 593 x 615 km, 82.5° (Epoch: 25 January)

Event Time Altitude Azimuth Distance (km) Brightness Sun altitude
Rises 17:05:13 0° 190° (S) 2,831 6.9 -12.1°
Reaches altitude 10° 17:07:25 10° 192° (SSW) 1,930 6.0 -12.5°
Maximum altitude 17:11:41 77° 278° (W) 617 3.1 -13.2°
Drops below altitude 10° 17:15:58 10° 6° (N) 1,938 5.4 -13.9°
Sets 17:18:11 0° 8° (N) 2,844 6.2 -14.3°
